Reflectivity
-20 -20 -20 -20 -20 -20 -20 -20 -20 -20 -20 -20 -20 -20 -20 -20 10 -20 -20 -20 -20 -20 -20 -20 -20 -20 -20 -20 -20 -20 -20 -20 -20 -20 -20 -20 -20 -20 -20 -20 -20 -20 -20
-20 -20 -20 -20 -20 -20 -20 -20 -20 -20 -20 -20 -20 -20 -20 -20 -17 -8 -7 -20 -20 -20 -20 -20 -20 -20 -20 -20 -20 -20 -20 -20 -20 -20 -20 -20 -20 -20 -20 -20 -20 -20 -20
-20 -20 -20 -20 -20 -20 -20 -20 -20 -20 -20 -20 -20 -20 -20 -9 -20 -12 -20 -16 -20 -20 -20 -20 -20 -20 -20 -20 -20 -20 -20 -20 -20 -20 -20 -20 -20 -20 -20 -20 -20 -20 -20
-20 -20 -20 -20 -20 -20 -20 -20 -20 -20 -20 -20 -20 -20 -20 -20 -20 -20 -20 -20 -20 -20 -1 9 9 -18 -10 -13 -20 -20 -19 -17 5 18 -20 -20 -20 -20 -20 -20 -20 -6 -2
-20 -20 -20 -20 -20 -20 -20 -20 -20 -20 -20 -20 -20 -20 -20 -20 -20 -20 -20 -20 -20 -20 -10 -20 -20 12 22 -3 -3 -20 -20 7 -20 20 -10 -20 -20 -20 -20 -20 -9 -14 11
-20 -20 -20 -20 -20 -20 -20 -20 -20 -20 -20 -20 -20 -20 -20 -20 -20 -20 -20 -20 -20 -15 -20 -9 -4 -6 -12 -20 -11 23 3 -4 10 -20 -20 -16 -12 -20 -20 -20 -20 -11 20
-20 -20 -20 -20 -20 -20 -20 -20 -20 -20 -20 -20 -20 -20 -20 -20 -20 -20 -20 -20 -17 -5 -20 -6 10 11 10 10 5 0 18 20 21 18 6 10 -20 -10 -6 18 -7 -15 -20
-20 -20 -20 -20 -20 -20 -20 -20 -20 -20 -20 -20 -20 -20 -20 -20 -20 -20 -20 -20 -20 -20 -16 -20 -20 10 1 -1 14 10 8 2 0 21 21 24 22 14 5 37 27 -20 -20
-20 -20 -20 -20 -20 -20 -20 -20 -20 -20 -20 -20 -20 -20 -20 -20 -20 -20 -20 -20 -20 -20 -20 6 -7 -14 6 5 -0 15 13 18 -3 -20 18 20 20 22 17 11 12 15 -4
-20 -20 -20 -20 -20 -20 -20 -20 -20 -20 -20 -20 -20 -20 -20 -20 -20 -20 -20 -20 -20 -20 -20 -20 -16 -7 0 9 13 12 24 13 16 20 21 20 22 22 18 15 18 29 27
-20 -20 -20 -20 -20 -20 -20 -20 -20 -20 -20 -20 -20 -20 -20 -20 -20 -20 -20 -20 -20 -20 -20 -18 10 17 -18 14 18 20 19 23 24 18 18 18 21 19 28 41 30 41 41
-20 -20 -20 -20 -20 -20 -20 -20 -20 -20 -20 -20 -20 -20 -20 -20 -20 -20 -20 -20 -20 -20 -20 -20 -20 -20 -20 8 14 -4 10 14 19 21 24 17 19 -15 -14 4 36 26 37
-20 -20 -20 -20 -20 -20 -20 -20 -20 -20 -20 -20 -20 -20 -20 -20 -20 -20 -20 -20 -20 -20 -20 -20 -20 7 -5 10 10 13 3 15 15 12 18 9 1 21 13 6 20 17 20
-20 -20 -20 -20 -20 -20 -20 -20 -20 -20 -20 -20 -20 -20 -20 -20 -20 -20 -20 -20 -20 -20 -20 -20 -20 -18 23 11 11 11 15 -15 -3 12 11 12 7 19 7 -4 13 19 33
-20 -20 -20 -20 -20 -20 -20 -20 -20 -20 -20 -20 -20 -20 -20 -20 -20 -20 -20 -20 -20 -20 -20 -20 -20 -20 -20 -20 -20 -8 -14 -20 -5 15 15 19 19 19 14 29 4 5 1
-20 -20 -20 -20 -20 -20 -20 -20 -12 -20 -20 -20 -20 -20 -20 -20 -20 -20 -20 -20 -20 -20 -20 -20 -20 -20 -20 -14 -20 -20 11 5 1 11 20 21 21 42 30 4 6 3 22
-20 -20 -20 -20 -17 -16 -4 -3 -18 -20 -20 -20 -20 -20 -20 -20 -20 -20 -20 -18 -10 -20 -10 -8 -17 -0 -0 11 6 8 -17 12 -3 17 12 12 26 22 1 14 26 16 7
-20 -20 -20 -20 -14 -11 -6 -5 -8 -20 -20 -20 -20 -20 -20 -20 -20 -20 -20 -20 -20 -20 -10 -2 -15 -16 11 11 3 19 18 7 14 13 5 9 21 27 20 2 -20 -20 -20
-20 -20 -20 -20 -20 -8 -13 -1 -4 -7 -8 -5 -20 -20 -20 -20 -19 -20 -20 -20 -20 -20 -20 -20 -20 -12 2 10 3 9 4 19 16 18 17 9 10 -20 -20 -20 -20 -20 -20
-20 -20 -20 -20 -20 -12 -20 -20 -20 -20 -20 -19 -2 -3 -20 -20 -20 -20 -9 -6 -20 -20 -20 -20 -20 -7 -10 7 15 8 -1 8 14 -2 7 -9 -20 -20 -20 -20 -20 -20 -20
-20 -20 -20 -20 -10 -20 -20 -20 -20 -20 -3 -5 -6 -20 -20 -20 -20 -20 -20 -20 -20 -20 -20 -20 -20 -20 -20 -20 -18 -8 -1 -12 -20 -20 -20 -20 -20 -20 -16 -15 -20 -20 -20
-20 -20 -20 -20 -20 -20 -20 -20 -20 -18 -20 -20 -20 -20 -20 -20 -20 -20 -20 -20 -20 -20 -20 -20 -20 -20 -20 -20 -20 -20 -20 -20 -20 -20 -20 -20 -20 -20 -20 -20 -20 -20 -20
-20 -20 -20 -20 -20 -20 -20 -20 -20 -20 -20 -20 -20 -20 -20 -20 -20 -20 -20 -20 -20 -20 -20 -20 -20 -20 -20 -20 -20 -20 -20 -20 -20 -20 -20 -20 -20 -20 -20 -20 -20 -20 -20
-20 -20 -20 -20 -20 -20 -20 -20 -20 -20 -20 -20 -20 -20 -20 -20 -20 -20 -20 -20 -20 -20 -20 -20 -20 -20 -20 -20 -20 -20 -20 -20 -20 -20 -20 -20 -20 -20 -20 -20 -20 -20 -20
-20 -20 -20 -20 -20 -20 -20 -20 -20 -20 -20 -20 -20 -20 -20 -20 -20 -20 -20 -20 -20 -20 -20 -20 -20 -20 -20 -20 -20 -20 -20 -20 -20 -20 -20 -20 -20 -20 -20 -20 -20 -20 -20
-20 -20 -20 -20 -20 -20 -20 -20 -20 -20 -20 -20 -20 -20 -20 -20 -20 -20 -20 -20 -20 -20 -20 -20 -20 -20 -20 -20 -20 -20 -20 -20 -20 -20 -20 -20 -20 -20 -20 -20 -20 -20 -20
Wind_Speed
10 1 6 8 10 10 10 12 12 13 10 9 10 9 10 9 8 10 15 12 12 13 13 10 11 11 10 12 11 10 10 7 6 5 4 3 5 6 6 6 6 7 8
9 3 4 3 5 7 9 10 11 12 11 8 8 9 9 9 8 8 11 15 13 14 13 13 12 13 11 13 13 13 8 7 9 6 6 5 5 7 8 7 7 8 6
5 4 2 3 4 5 5 6 10 11 11 12 8 8 8 9 9 9 9 12 17 14 16 14 12 12 12 11 12 13 14 10 8 10 5 4 5 6 7 8 7 8 7
5 3 2 5 5 5 5 6 5 7 9 12 11 13 10 10 9 9 9 10 13 15 15 13 14 14 11 13 14 13 12 9 10 6 9 0 1 4 3 4 7 7 9
2 1 3 5 5 5 6 6 7 6 5 7 10 9 11 9 8 9 12 12 10 12 14 14 14 13 12 13 13 14 15 12 10 8 4 6 3 3 2 4 5 7 7
2 1 3 5 5 6 6 7 8 8 6 5 7 10 12 12 10 9 9 8 8 7 11 12 11 11 11 12 13 14 15 14 12 9 7 8 7 6 4 3 5 6 6
1 3 5 6 6 7 7 7 8 9 9 8 8 7 9 11 13 12 9 10 8 7 7 9 10 10 11 12 12 13 13 15 13 13 11 8 8 4 5 3 3 4 3
2 3 5 7 7 7 8 8 8 9 8 8 9 9 8 6 7 8 9 8 8 8 8 9 9 11 11 11 11 10 11 12 11 14 10 7 6 2 3 7 5 2 2
4 4 6 7 7 7 8 8 8 9 9 9 8 8 8 8 8 9 9 7 9 8 11 8 9 10 12 11 9 8 9 9 10 9 8 7 4 3 3 2 1 4 5
3 4 5 6 6 6 7 8 8 9 9 9 8 7 8 7 7 7 9 8 9 10 11 5 6 5 6 9 7 7 7 9 8 7 9 5 4 4 4 4 4 4 3
4 5 5 6 5 6 7 8 8 9 9 9 9 9 7 8 7 6 7 7 7 8 7 6 5 6 4 2 2 3 3 6 5 3 6 7 8 6 5 2 3 7 2
4 5 5 6 6 7 8 9 8 9 9 10 10 9 8 8 7 6 6 6 6 5 5 5 4 4 4 1 2 2 0 3 5 5 7 8 6 8 8 6 7 3 3
3 5 5 5 5 7 8 9 10 10 11 11 10 9 9 9 9 8 9 8 7 6 5 4 4 4 5 4 4 4 3 3 4 7 8 10 11 8 7 7 7 4 4
3 4 4 5 5 6 7 9 10 10 10 9 9 9 9 9 8 9 9 10 9 8 8 8 8 7 7 8 8 8 8 8 8 7 7 7 8 9 8 6 6 5 4
4 4 5 5 6 6 6 7 9 9 9 8 8 8 8 9 9 9 9 8 9 9 7 8 8 8 7 6 7 8 9 9 10 8 8 7 9 12 7 5 6 6 4
3 4 4 6 7 7 7 7 7 8 8 8 7 7 8 8 9 10 10 10 9 9 9 8 8 8 6 13 12 10 8 8 8 8 8 7 9 12 8 9 9 6 4
3 3 5 6 5 5 6 6 7 6 6 5 5 6 7 8 10 10 10 9 9 8 9 9 9 11 10 15 16 16 8 8 8 6 6 6 5 7 2 4 4 3 5
3 4 5 2 3 4 5 5 6 7 6 6 7 8 9 10 9 8 9 9 7 9 9 10 12 12 12 18 18 19 9 8 8 6 5 4 3 4 3 2 2 2 3
5 5 3 4 5 4 4 4 6 5 5 7 8 9 9 9 8 8 7 7 8 9 9 9 11 11 10 17 16 12 7 6 5 2 3 3 2 3 2 2 1 3 4
7 6 6 6 5 4 4 4 5 5 6 6 7 8 9 7 7 7 7 8 8 8 7 9 9 12 8 13 12 6 3 4 3 3 3 3 5 3 3 4 4 3 3
8 8 7 6 6 5 5 5 5 5 5 6 7 7 8 9 8 7 7 6 7 8 7 5 4 4 5 6 7 6 2 2 2 2 2 2 3 4 4 4 4 3 5
9 8 7 7 6 5 5 5 5 5 5 5 6 6 6 6 6 7 5 5 5 5 5 6 5 5 6 8 7 7 7 6 3 2 2 2 3 4 5 5 7 9 8
9 9 8 8 7 7 6 6 5 5 6 5 5 5 5 5 5 5 5 4 4 3 3 2 2 3 2 3 5 5 5 5 4 3 5 3 3 6 6 6 7 7 4
10 9 10 9 8 8 7 6 7 6 5 6 5 4 4 4 4 3 2 2 2 2 2 2 2 1 1 1 1 1 2 3 3 1 2 3 6 6 6 5 4 3 3
10 10 10 9 10 9 8 7 7 6 5 5 4 4 3 3 4 4 4 3 5 5 3 3 3 3 2 4 4 5 5 5 6 6 4 4 3 3 3 3 3 3 3
9 9 8 7 9 9 8 7 7 7 6 5 3 3 3 2 2 3 4 9 7 6 6 5 4 2 3 5 7 6 7 8 9 5 5 4 3 3 4 4 3 3 5
Wind_Direction
256 326 283 278 271 264 261 257 250 252 237 235 232 202 211 219 224 225 248 235 220 221 216 216 221 216 212 199 205 211 198 200 185 166 195 204 219 231 219 214 190 195 197
264 282 280 275 285 276 267 257 253 246 243 243 247 223 216 228 228 230 230 242 231 220 218 218 220 212 213 205 201 202 194 191 187 178 168 194 199 219 222 213 204 204 191
205 167 146 66 25 38 349 301 279 271 264 257 256 257 235 214 207 215 222 224 236 238 225 221 220 222 213 210 207 200 199 194 193 210 161 194 218 149 192 213 206 211 196
141 128 25 16 12 16 355 342 317 289 271 266 259 258 248 242 237 242 222 228 221 235 239 228 219 220 221 213 209 198 198 195 193 208 234 130 23 182 163 213 218 216 214
110 52 25 359 347 1 341 331 323 317 312 275 266 256 254 258 245 240 245 244 219 216 237 237 230 225 218 223 220 202 196 203 194 202 168 206 209 270 202 167 196 216 216
108 9 6 341 349 357 341 330 321 321 322 308 278 261 261 265 250 243 245 242 238 218 226 240 244 223 226 221 221 221 205 205 211 191 192 188 173 190 188 196 161 188 192
190 341 343 338 343 343 335 329 331 324 319 317 304 284 267 267 276 270 260 252 246 233 197 214 234 235 236 229 219 226 219 211 212 199 200 201 204 151 185 238 128 170 116
346 343 348 336 331 330 333 331 331 330 340 328 318 307 299 284 277 270 272 277 273 264 230 203 218 235 234 231 227 222 219 215 219 222 216 212 214 182 183 196 152 132 131
331 338 340 338 329 330 330 330 326 328 328 327 324 319 314 307 301 296 290 283 275 292 286 266 205 215 233 227 221 220 218 205 213 216 217 227 233 224 170 131 178 148 157
304 332 331 332 330 336 336 331 333 336 332 325 318 321 323 318 305 304 292 310 313 287 292 290 306 265 233 232 219 214 218 204 205 207 206 167 131 95 72 86 66 59 79
326 330 334 331 339 347 348 339 341 336 335 332 325 313 325 334 342 343 339 317 300 296 312 336 334 317 286 256 257 250 233 241 213 132 149 137 139 125 106 34 107 92 106
338 333 331 330 354 353 344 340 347 340 347 341 330 324 325 338 353 10 355 342 331 347 352 353 352 353 347 349 276 263 245 186 139 147 140 138 134 118 120 117 73 86 44
351 326 325 334 356 353 348 346 349 349 353 348 348 351 351 350 0 7 11 13 8 9 19 28 35 35 35 33 28 55 55 89 116 145 141 134 127 120 121 124 130 113 109
356 338 322 335 6 350 353 355 345 347 343 344 352 1 9 13 15 17 18 21 19 24 28 33 51 60 57 58 69 84 91 87 88 93 115 124 131 135 138 134 128 115 109
336 339 333 345 352 349 351 5 347 338 344 359 3 3 15 23 27 34 35 37 43 35 30 48 53 59 73 78 94 101 100 104 97 92 90 92 113 123 137 132 130 130 136
357 351 338 14 359 358 0 356 346 349 355 14 11 19 28 30 40 35 44 42 47 47 49 55 66 78 78 93 97 93 100 100 100 96 84 79 90 108 110 131 136 140 150
32 3 26 22 8 357 0 355 348 3 12 23 28 41 52 45 46 52 52 53 56 48 58 66 71 68 66 80 84 79 62 71 74 79 82 85 83 77 124 93 94 186 211
111 60 48 34 27 27 18 21 16 19 20 33 38 44 54 53 55 60 65 65 61 68 65 54 50 56 61 74 79 76 65 62 67 64 72 88 128 139 179 128 168 208 235
104 90 120 89 70 53 50 48 51 37 34 39 42 46 57 63 61 55 55 61 68 63 63 62 62 66 65 71 73 71 75 77 65 92 89 167 160 128 268 288 233 259 248
127 150 133 105 104 90 73 62 56 48 41 39 49 58 72 69 68 64 62 71 71 70 68 69 70 81 74 68 67 87 110 121 141 108 118 36 20 5 301 285 294 306 329
144 155 134 121 124 131 109 84 76 59 52 53 59 69 79 88 80 74 78 78 80 84 82 93 117 114 106 86 71 45 31 47 42 27 13 70 25 333 325 347 333 325 325
159 171 152 142 142 141 129 114 95 98 97 91 83 77 78 87 101 104 116 135 124 103 93 86 74 54 64 47 55 56 46 14 4 359 356 10 6 360 338 322 303 302 308
179 179 165 159 153 160 154 137 133 140 127 118 116 100 90 88 91 98 95 87 85 88 80 68 80 75 41 61 41 39 18 12 339 11 358 335 310 299 297 306 316 313 280
185 185 175 169 162 163 169 149 158 171 143 123 115 111 100 99 98 77 54 86 78 79 70 74 56 79 44 64 359 348 323 323 298 271 255 323 301 289 286 293 286 245 278
189 190 190 181 171 171 173 165 166 158 146 136 127 116 118 112 96 58 44 77 51 23 22 45 21 353 19 39 354 349 345 346 340 329 294 288 291 300 293 282 280 283 276
182 193 193 180 174 174 172 173 170 168 157 152 150 144 139 109 110 137 106 67 76 72 67 48 25 20 350 335 325 320 321 323 319 313 283 296 301 302 310 312 317 322 308